Minot Air Force Base, ND

11:50 PM CDT on August 25, 2016 (GMT -0500)
Minot Air Force Base

Weather History for KMIB - February, 2014

Change the Weather History Date:

Thursday, February 13, 2014

  Actual Average Record
Temperature  
Mean Temperature 3 °F -  
Max Temperature 14 °F 22 °F 44 °F (2002)
Min Temperature -8 °F 6 °F -29 °F (2007)
Degree Days  
Heating Degree Days 62    
Moisture  
Dew Point -6 °F    
Average Humidity 79    
Maximum Humidity 92    
Minimum Humidity 69    
Precipitation  
Precipitation 0.00 in - - ()
Snow  
Snow 0.00 in - - ()
Snow Depth 2.00 in    
Sea Level Pressure  
Sea Level Pressure 29.73 in    
Wind  
Wind Speed 17 mph (NNW)    
Max Wind Speed 24 mph    
Max Gust Speed 32 mph    
Visibility 7 miles    
Events Snow    
Averages and records for this station are not official NWS values.
T = Trace of Precipitation, MM = Missing Value Source: NWS Daily Summary

Daily Weather History Graph

Daily Weather History Graph

Search for Another Location

Airport or City:

Trip Planner

Search our weather history database for the weather conditions in past years. The results will help you decide how hot, cold, wet, or windy it might be!

Date:

Astronomy

Feb. 13, 2014 Rise Set
Actual Time 7:55 AM CST 6:04 PM CST
Civil Twilight 7:23 AM CST 6:36 PM CST
Nautical Twilight 6:46 AM CST 7:13 PM CST
Astronomical Twilight 6:10 AM CST 7:49 PM CST
Moon 5:14 PM CST (2/13) 6:51 AM CST (2/13)
Length of Visible Light 11h 13m
Length of Day
10h 08m
Waxing Gibbous, 99% of the Moon is Illuminated
Feb 13
Waxing Gibbous
Feb 14
Full
Feb 22
Last Quarter
Mar 1
New
Mar 8
First Quarter

Hourly Weather History & Observations

Time (CST) Temp. Windchill Dew Point Humidity Pressure Visibility Wind Dir Wind Speed Gust Speed Precip Events Conditions
12:03 AM 14.0 °F -3.9 °F 10.4 °F 86% 29.31 in 7.0 mi NNW 20.7 mph - N/A   Light Freezing Rain
12:08 AM 14.0 °F -3.0 °F 10.4 °F 86% 29.33 in 6.0 mi NNW 18.4 mph - N/A   Light Freezing Rain
12:23 AM 10.4 °F -7.7 °F 8.6 °F 92% 29.35 in 4.0 mi North 18.4 mph - N/A   Light Freezing Rain
12:58 AM 8.6 °F -11.4 °F 5.0 °F 85% 29.54 in 3.0 mi North 21.9 mph 28.8 mph 0.00 in Snow Light Snow
1:03 AM 6.8 °F -13.8 °F 3.2 °F 85% 29.42 in 3.0 mi North 21.9 mph 27.6 mph N/A Snow Light Snow
1:08 AM 6.8 °F -13.4 °F 3.2 °F 85% 29.43 in 3.0 mi North 20.7 mph 27.6 mph N/A Snow Light Snow
1:13 AM 6.8 °F -12.9 °F 3.2 °F 85% 29.44 in 2.5 mi North 19.6 mph 26.5 mph N/A Snow Light Snow
1:23 AM 6.8 °F -12.9 °F 1.4 °F 79% 29.46 in 3.0 mi North 19.6 mph 24.2 mph N/A Snow Light Snow
1:28 AM 5.0 °F -13.6 °F 1.4 °F 85% 29.47 in 2.5 mi North 16.1 mph 25.3 mph N/A Snow Light Snow
1:58 AM 3.2 °F -19.5 °F -2.2 °F 78% 29.65 in 2.5 mi NNW 24.2 mph 32.2 mph 0.00 in Snow Light Snow
2:08 AM 1.4 °F -20.5 °F -2.2 °F 85% 29.54 in 2.5 mi North 20.7 mph 31.1 mph N/A Snow Light Snow
2:13 AM 1.4 °F -20.5 °F -2.2 °F 85% 29.54 in 3.0 mi North 20.7 mph 28.8 mph N/A Snow Light Snow
2:18 AM 1.4 °F -21.0 °F -4.0 °F 78% 29.55 in 3.0 mi NNW 21.9 mph 28.8 mph N/A Snow Light Snow
2:33 AM -0.4 °F -23.8 °F -4.0 °F 85% 29.57 in 3.0 mi NNW 23.0 mph 32.2 mph N/A Snow Blowing Snow
2:38 AM -0.4 °F -24.3 °F -4.0 °F 85% 29.58 in 2.5 mi NNW 24.2 mph 28.8 mph N/A Snow Blowing Snow
2:48 AM -0.4 °F -23.8 °F -5.8 °F 78% 29.59 in 3.0 mi NNW 23.0 mph 31.1 mph N/A Snow Blowing Snow
2:53 AM -2.2 °F -26.7 °F -5.8 °F 85% 29.60 in 3.0 mi NNW 24.2 mph 31.1 mph N/A Snow Blowing Snow
2:58 AM -1.7 °F -25.0 °F -6.3 °F 80% 29.75 in 4.0 mi NNW 21.9 mph 29.9 mph 0.00 in Snow Blowing Snow
3:08 AM -2.2 °F -26.2 °F -7.6 °F 78% 29.62 in 4.0 mi NNW 23.0 mph 28.8 mph N/A Snow Blowing Snow
3:23 AM -2.2 °F -25.7 °F -7.6 °F 78% 29.64 in 4.0 mi NNW 21.9 mph 29.9 mph N/A Snow Blowing Snow
3:43 AM -2.2 °F -25.2 °F -7.6 °F 78% 29.64 in 5.0 mi NNW 20.7 mph - N/A   Light Freezing Rain
3:53 AM -2.2 °F -25.2 °F -7.6 °F 78% 29.65 in 6.0 mi NNW 20.7 mph - N/A   Light Freezing Rain
3:58 AM -3.3 °F -26.6 °F -8.3 °F 79% 29.80 in 8.0 mi NNW 20.7 mph - 0.00 in   Light Freezing Rain
4:08 AM -4.0 °F -25.8 °F -9.4 °F 78% 29.67 in 10.0 mi NNW 17.3 mph - N/A   Light Freezing Rain
4:13 AM -4.0 °F -25.2 °F -7.6 °F 85% 29.67 in 9.0 mi NNW 16.1 mph - N/A   Overcast
4:18 AM -4.0 °F -25.8 °F -7.6 °F 85% 29.68 in 9.0 mi NNW 17.3 mph - N/A   Overcast
4:23 AM -4.0 °F -27.0 °F -9.4 °F 78% 29.68 in 10.0 mi NNW 19.6 mph - N/A   Overcast
4:48 AM -4.0 °F -25.2 °F -9.4 °F 78% 29.71 in 10.0 mi NNW 16.1 mph - N/A   Overcast
4:58 AM -4.2 °F -26.1 °F -9.8 °F 77% 29.86 in 10.0 mi NNW 17.3 mph - 0.00 in   Overcast
5:03 AM -4.0 °F -25.8 °F -9.4 °F 78% 29.72 in 10.0 mi NNW 17.3 mph - N/A   Overcast
5:18 AM -5.8 °F -27.5 °F -9.4 °F 84% 29.74 in 10.0 mi NW 16.1 mph - N/A   Scattered Clouds
5:58 AM -5.4 °F -26.3 °F -11.0 °F 77% 29.91 in 10.0 mi NW 15.0 mph - N/A   Clear
6:58 AM -6.3 °F -25.9 °F -12.1 °F 76% 29.92 in 10.0 mi NW 12.7 mph - N/A   Clear
7:58 AM -8.7 °F -23.4 °F -14.4 °F 76% 29.95 in 10.0 mi West 6.9 mph - N/A   Clear
8:53 AM -7.6 °F -25.7 °F -14.8 °F 71% 29.81 in 1.5 mi WNW 10.4 mph - N/A   Haze
8:58 AM -8.0 °F -27.1 °F -13.7 °F 76% 29.96 in 1.5 mi WNW 11.5 mph - N/A   Haze
9:03 AM -7.6 °F -26.6 °F -13.0 °F 77% 29.82 in 8.0 mi WNW 11.5 mph - N/A   Clear
9:58 AM -5.4 °F -23.0 °F -12.8 °F 70% 29.97 in 9.0 mi NW 10.4 mph - 0.00 in   Clear
10:58 AM -4.2 °F -20.4 °F -11.9 °F 69% 29.97 in 10.0 mi NW 9.2 mph - N/A   Clear
11:58 AM -2.7 °F -17.5 °F -10.1 °F 71% 29.95 in 10.0 mi North 8.1 mph - N/A   Clear
12:58 PM -2.0 °F -12.2 °F -9.8 °F 70% 29.96 in 10.0 mi NW 4.6 mph - N/A   Clear
1:58 PM -0.6 °F -13.6 °F -8.0 °F 71% 29.92 in 10.0 mi NNE 6.9 mph - N/A   Clear
2:58 PM -0.8 °F - -7.8 °F 72% 29.92 in 10.0 mi NNW 2.3 mph - N/A   Clear
3:58 PM -0.6 °F -12.2 °F -7.2 °F 73% 29.93 in 10.0 mi NNE 5.8 mph - N/A   Clear
4:58 PM -0.6 °F - -7.4 °F 73% 29.94 in 10.0 mi North 2.3 mph - N/A   Clear
5:58 PM -0.4 °F -12.0 °F -7.1 °F 73% 29.94 in 10.0 mi NE 5.8 mph - N/A   Clear
6:58 PM -0.4 °F -12.0 °F -6.5 °F 75% 29.94 in 10.0 mi ENE 5.8 mph - N/A   Clear
7:58 PM -0.0 °F - -6.0 °F 76% 29.96 in 10.0 mi NE 1.2 mph - N/A   Clear
8:58 PM 0.3 °F - -5.8 °F 75% 29.97 in 10.0 mi NNE 2.3 mph - N/A   Clear
9:58 PM 0.5 °F -7.3 °F -5.6 °F 75% 29.99 in 10.0 mi East 3.5 mph - N/A   Clear
10:58 PM 0.3 °F -9.5 °F -5.6 °F 76% 30.00 in 10.0 mi ENE 4.6 mph - N/A   Partly Cloudy
11:58 PM 0.3 °F -7.5 °F -5.6 °F 76% 30.01 in 10.0 mi East 3.5 mph - N/A   Partly Cloudy